Weather in Mostiska

Ukraine / Lviv District     49˚47′31″N   23˚09′05″E
temp.,
°C
wind,
m/s
gust,
m/s
humid.,
%
clouds,
%
prec.,
mm/h
press.,
hPa
HPBL,
m
28 november, sat
sat2823:00+2˚w489297 0.0 1022314
02:00+2˚wsw479596 0.1 1021267
05:00+1˚wsw479592 0.0 1020289
08:00w489282 0.1 1020287
11:00+1˚w589199 0.3 1020585
14:00+2˚w4786100 0.4 1019589
17:00+1˚wnw589799 0.1 1020452
20:00nnw129899 1.2 1020139
29 november, sun
sun2923:00nnw2494100 1.2 1021297
02:00−1˚nnw2298100 1.8 1020185
05:00−1˚w2497100 0.8 1020251
08:00−2˚w2397100 1.2 1020173
11:00−1˚w239599 0.2 1021259
14:00wnw248799 0.4 1021461
17:00−2˚w239368 0.0 102135
20:00−3˚w349557 0.0 1022100
30 november, mon
mon3023:00−2˚wsw359786 0.1 1023190
02:00−3˚w359484 0.2 1024144
05:00−2˚w249497 0.1 1025261
08:00−2˚w239297 0.1 1026296
11:00−1˚wsw3384100 0.1 1027466
14:00−1˚w3379100 0.1 1027635
17:00−1˚w128399 0.0 1028289
20:00−1˚sw1281100 0.0 1029179
1 december, tue
tue123:00−4˚s238887 0.0 102955
02:00−4˚sse339244 0.0 102887
05:00−5˚se35910 0.0 1028113
08:00−5˚se36910 0.0 1028148
11:00−2˚se46832 0.0 1027266
14:00−1˚se46801 0.0 1026319
17:00−3˚ese48890 0.0 1026178
20:00−4˚se49900 0.0 1027218
2 december, wed
wed223:00−4˚se49900 0.0 1027233
02:00−5˚se37920 0.0 1026193
05:00−6˚se36920 0.0 1026165
08:00−6˚se36916 0.0 1026153
11:00−3˚se467911 0.0 1027260
14:00−1˚se35785 0.0 1025332
17:00−4˚se34919 0.0 102582
20:00−5˚se36945 0.0 1026156